NOAA NWS Hourly Roundups by Site

Regional Weather Roundup for Upton, NY

To Select Another Site Choose from List

Select Site:  

000
ASUS41 KOKX 281313
RWROKX

Regional Weather Roundup
National Weather Service New York NY
900 AM EDT SAT MAY 28 2022

Note: "FAIR" indicates few or no clouds below 12,000 feet with no
significant weather and/or obstructions to visibility.

NYZ071-072-176-178-NJZ106-104-281400-
New York City Metro Area

CITY           SKY/WX    TMP DP  RH WIND       PRES   REMARKS
Central Park   CLOUDY    67  65  93 CALM      29.74S
World Trd Ctr  NOT AVBL
Bronx Lehman C   N/A     68  64  88 W3          N/A
LaGuardia Arpt LGT RAIN  69  64  84 S6        29.71S
Queens College   N/A     66  64  94 S6          N/A
Kennedy Intl   LGT RAIN  66  64  93 S7        29.73S
Breezy Point     N/A     64 N/A N/A S6          N/A
Brooklyn Coll    N/A     68  64  88 S3          N/A
Staten Island    N/A     68  66  94 SW5         N/A
Newark/Liberty PTSUNNY   71  66  84 SW6       29.72R
Teterboro      CLOUDY    69  67  93 SW6       29.70S
$$

NYZ177-179-078>081-281400-
Long Island New York

CITY           SKY/WX    TMP DP  RH WIND       PRES   REMARKS
Jones Beach      N/A     63 N/A N/A S6          N/A
Wantagh          N/A     63  63 100 S5          N/A
Hempstead      NOT AVBL
Matinecock Pt    N/A     68 N/A N/A SW6         N/A
Farmingdale    CLOUDY    65  63  93 SW7       29.73S FOG
MacArthur/ISP  CLOUDY    64  64 100 S6        29.73S FOG
Stony Brook      N/A     64  64 100 S2          N/A
Shirley        CLOUDY    63  61  93 S7        29.74S FOG
Mt Sinai Harb    N/A    N/A N/A N/A S3          N/A
Westhampton    FOG       61  60  97 S7        29.76R VSB 1/4
East Hampton   NOT AVBL
Southold         N/A     63  63 100 S8          N/A
Montauk          N/A     60  60 100 VRB7      29.76S
$$

NYZ052-065-067-281400-
Hudson Valley

CITY           SKY/WX    TMP DP  RH WIND       PRES   REMARKS
White Plains   LGT RAIN  68  64  87 VRB3      29.72R
Larchmont Harb   N/A     64 N/A N/A S5          N/A
Croton On Huds   N/A     68 N/A N/A SE2         N/A
Somers           N/A     64  64 100 S2          N/A
Brewster         N/A     64  64 100 S1          N/A
Newburgh       CLOUDY    66  66 100 CALM      29.71F FOG
Montgomery     LGT RAIN  67  65  93 SW3       29.70S
Otisville        N/A     66  64  94 S3          N/A
Warwick          N/A     68  66  94 W6          N/A
Suffern          N/A     66  66 100 SW1         N/A
Poughkeepsie   CLOUDY    68  66  93 VRB3      29.70S
Albany         PTSUNNY   69  64  84 S5        29.71R
$$

NJZ001-105-106-008-010-013-015-019>022-104-281400-
New Jersey

CITY           SKY/WX    TMP DP  RH WIND       PRES   REMARKS
Newark/Liberty PTSUNNY   71  66  84 SW6       29.72R
Teterboro      CLOUDY    69  67  93 SW6       29.70S
Caldwell       CLOUDY    71  65  81 VRB3      29.73R
Somerville     CLOUDY    69  67  93 CALM      29.71R
Linden         NOT AVBL
Perth Amboy      N/A     66 N/A N/A W7          N/A
Sussex         RAIN      68  66  93 CALM      29.73S FOG
Andover          N/A     69  65  86 SW3       29.74R
Trenton        PTSUNNY   67  66  97 SW3       29.73S
Millville      MOSUNNY   69  62  78 W8        29.78R
Atlantic City  PTSUNNY   68  63  84 W10       29.76R
Wrightstown    PTSUNNY   68  67  98 SW6       29.74S
Toms River     NOT AVBL
Belmar         CLOUDY    67  32  27 SW8       29.76R
$$

PAZ047>061-062-071-281400-
Eastern Pennsylvania

CITY           SKY/WX    TMP DP  RH WIND       PRES   REMARKS
Philadelphia   PTSUNNY   71  63  75 W10       29.76R
Allentown      CLOUDY    66  63  90 W8        29.73R
Scranton       CLOUDY    67  60  78 NW7       29.76R
$$

CTZ002-004>006-009-010-012-RIZ004-006-007-MAZ004-011-015-281400-
Southern New England

 In CT

CITY           SKY/WX    TMP DP  RH WIND       PRES   REMARKS
Bradley Intl   CLOUDY    69  64  84 S5        29.71S
Hartford       CLOUDY    69  64  84 VRB6      29.71S
Danbury        CLOUDY    69  65  86 SW6       29.73S
Wtrbury/Oxford CLOUDY    65  64  97 SW5       29.74S
Norwalk Harbor   N/A     64 N/A N/A CALM        N/A
Bridgeport     FOG       65  63  93 SW6       29.72R VSB 1
Meriden        CLOUDY    68  63  84 S7        29.72S
New Haven      CLOUDY    66  65  96 S3        29.72R FOG
Chester        FOG       64  64 100 S7        29.73S VSB 1/2
Groton         CLOUDY    63  61  93 S8        29.73R FOG
Willimantic    CLOUDY    66  64  93 S7        29.72S

 In RI

CITY           SKY/WX    TMP DP  RH WIND       PRES   REMARKS
Providence     CLOUDY    66  63  90 SW10      29.74R
Block Island   LGT RAIN  58  58 100 SW12      29.76R VSB 1/4
Westerly       FOG       61  61 100 S8        29.74R VSB 1

In MA

CITY           SKY/WX    TMP DP  RH WIND       PRES   REMARKS
Boston         CLOUDY    68  65  90 S12       29.71R
Worcester      CLOUDY    65  63  93 W13       29.73R
Westfield      CLOUDY    68  64  87 CALM      29.70S
Provincetown   CLOUDY    63  63 100 SW17      29.74F
Nantucket      FOG       62  61  96 S17       29.78S VSB 1/2
$$

ANZ330-335-338-340-345-350-353-355-281400-
Coastal Marine Observations


STATION/POSITION TIME  SKY/WX   TEMP    WIND        PRES    VSBY  WAVE
                                AIR SEA DIR/SP/G                  HT/PER
                 (UTC)          (F)     (DEG/KT/KT) (MB)    (MI)  (FT/S)
NY Harb Entrance 1250               61  180/ 10/ 12 1006.0          4/ 6
20 S Fire Island 1240               58              1006.2
Great South Bay  NOT AVBL
23 SSW Montauk P 1250            59     200/ 12/ 16 1007.7          5/ 7
15 E Barnegat Li NOT AVBL
Hudson Canyon    NOT AVBL
Kings Point      1230            67 61  210/  2/  2 1007.2
Execution Rocks  NOT AVBL
Western LI Sound NOT AVBL
Central LI Sound NOT AVBL
Robbins Reef     1230            67     170/  4/  5 1006.2
$$


>>>>>>>>>>>>>>>>>>>>>>>>>>>> KEY <<<<<<<<<<<<<<<<<<<<<<<<<<<
>                                                          <
>     SKY/WX - Sky Condition/Present Weather               <
>     TMP    - Temperature in Fahrenheit                   <
>     DP     - Dew Point in Fahrenheit                     <
>     RH     - Relative Humidity in Percent                <
>     WIND   - Direction (from) and Speed in MPH           <
>     PRES   - Mean Sea Level Pressure (inches of Hg)      <
>     WCI    - Wind Chill Index                            <
>     VSB    - Visibility in Miles                         <
>     HX     - Heat Index                                  <
>     TC     - Temperature in Celsius                      <
>     VRB    - Variable Wind Direction                     <
>                                                          <
>>>>>>>>>>>>>>>>>>>>>>>>>>>> KEY <<<<<<<<<<<<<<<<<<<<<<<<<<<


 

View Past Reports for Upton, NY.

Products Courtesy of NOAA-NWS
NWS Information Parsing Script by Ken True at Saratoga Weather - Script by SE Lincoln Weather.